Weather in Limnia

Ukraine / Lviv District     49°15′25″N   22°49′09″E
temp.,
°C
wind,
m/s
gust,
m/s
humid.,
%
clouds,
%
prec.,
mm/h
press.,
hPa
HPBL,
m
4 march, thu
thu423:00+1ssw359423 0.0 1025143
02:00+2ssw4169112 0.0 1023475
05:00+2sw4129052 0.0 1021320
08:00+1ssw379544 0.0 1019206
11:00+6sw397452 0.0 1017384
14:00+8sw486826 0.0 1015537
17:00+6sw387963 0.0 1014418
20:00+4sw269281 0.1 1014234
5 march, fri
fri523:00+4sw2696100 1.4 1013265
02:00+4ssw2397100 2.8 1012135
05:00+3w1198100 0.6 101229
08:000n2598100 5.8 1012329
11:000n2396100 3.8 1014356
14:00−1nne5896100 6.8 1016549
17:00−2nne5896100 2.5 1018598
20:00−5nne2990100 3.1 1021477
6 march, sat
sat623:00−7n279067 0.0 1024150
02:00−8nw128833 0.0 102723
05:00−8wnw22900 0.0 102724
08:00−7wnw279614 0.0 1030338
11:00−3nnw477893 0.3 10311215
14:00−2nw466797 0.6 10311524
17:00−3nw3574100 0.2 10311170
20:00−7w118877 0.2 103221
7 march, sun
sun723:00−7ssw12860 0.0 103221
02:00−8ssw22850 0.0 103128
05:00−7sw311860 0.0 1029399
08:00−5sw414780 0.0 1028484
11:00−1sw510650 0.0 1025741
14:00+1sw510650 0.0 1023804
17:00−1sw512701 0.0 1020689
20:00−3sw514760 0.0 1020436
8 march, mon
mon823:00−4sw38840 0.0 1020190
02:00−5ssw23876 0.0 101955
05:00−5sw228958 0.0 101823
08:00−4ssw228776 0.0 101870
11:000wsw356995 0.0 10171052
14:00+1wnw467297 0.1 10171191
17:00−1wnw3786100 0.3 1016735
20:00−2wnw279798 0.6 1019614